User: anonymous   Login
Location: Bagnara
(41.0500°N, 14.7833°E)
Time: 16:53:00
(UTC+00:00)
Language:

Cosmos 2369 Rocket - Orbit

View from above orbital plane
View from above orbital plane
View from above satellite
View from above satellite

Ground track
Ground track

The orbit data is extracted from the following two-line orbital elements,

1 26070U 00006B   21263.78789740 -.00000163  00000-0 -58919-4 0  9993
2 26070  71.0011 285.9073 0015185 151.4074 208.7885 14.15471995117758
Epoch (UTC): 20 September 2021 18:54:34
Eccentricity: 0.0015185
inclination: 71.0011°
perigee height: 830 km
apogee height: 851 km
right ascension of ascending node: 285.9073°
argument of perigee: 151.4074°
revolutions per day: 14.15471995
mean anomaly at epoch: 208.7885°
orbit number at epoch: 11775

The dashed part of the orbit path shows where the satellite is in the earth's shadow,  

DLR